FW1036 Weather Reports


time (UTC)temp
C
wind
direction
speed
KPH
gust
KPH
rain 1hr
cm
rain 24hr
cm
rain mn
cm
humidity
%
barometer
mb
20260906061529 15 351 3.2 8.0 0.00 0.00 0.00 91 1015.8
20260906060031 15 317 0.0 3.2 0.00 0.00 0.00 90 1015.9
20260906054525 15 334 0.0 3.2 0.00 0.00 0.00 90 1015.8
20260906053024 16 328 1.6 8.0 0.00 0.00 0.00 90 1015.8
20260906051527 16 360 3.2 6.4 0.00 0.00 0.00 90 1015.8
20260906050023 16 10 4.8 8.0 0.00 0.00 0.00 90 1015.6
20260906044521 15 24 3.2 8.0 0.00 0.00 0.00 90 1015.5
20260906043016 15 5 4.8 9.7 0.00 0.00 0.00 89 1015.4
20260906041521 15 5 4.8 8.0 0.00 0.00 0.00 89 1015.4
20260906040012 15 5 3.2 12.9 0.00 0.00 0.00 88 1015.3
20260906034511 16 29 4.8 8.0 0.00 0.00 0.00 88 1015.2
20260906033011 16 360 6.4 9.7 0.00 0.00 0.00 87 1015.2
20260906031510 16 39 4.8 9.7 0.00 0.00 0.00 87 1015.3
20260906030010 16 350 3.2 9.7 0.00 0.00 0.00 86 1015.2
20260906024509 16 20 4.8 12.9 0.00 0.00 0.00 86 1015.1
20260906023018 16 5 6.4 12.9 0.00 0.00 0.00 85 1015.2
20260906021513 16 5 4.8 12.9 0.00 0.00 0.00 85 1015.3
20260906020009 16 360 4.8 9.7 0.00 0.00 0.00 84 1015.1
20260906014507 16 20 3.2 6.4 0.00 0.00 0.00 83 1015.3
20260906013005 16 355 3.2 9.7 0.00 0.00 0.00 83 1015.3
20260906011503 16 5 3.2 6.4 0.00 0.00 0.00 83 1015.1
20260906010002 16 344 3.2 9.7 0.00 0.00 0.00 82 1014.8
20260906004600 16 355 4.8 9.7 0.00 0.00 0.00 81 1014.8
20260906003059 16 15 3.2 14.5 0.00 0.00 0.00 79 1015.2
20260906001559 17 5 4.8 9.7 0.00 0.00 0.00 78 1015.0
20260906000058 17 341 1.6 12.9 0.00 0.00 0.00 76 1015.0
20260905234611 17 360 3.2 16.1 0.00 0.00 0.00 75 1014.9
20260905233056 18 345 4.8 17.7 0.00 0.00 0.00 73 1014.9
20260905231556 18 338 9.7 19.3 0.00 0.00 0.00 70 1014.9
20260905230123 18 12 9.7 22.5 0.00 0.00 0.00 70 1014.8
20260905224554 19 5 11.3 20.9 0.00 0.00 0.00 71 1014.9
20260905223054 20 30 16.1 24.1 0.00 0.00 0.00 70 1014.8
20260905221557 20 41 12.9 22.5 0.00 0.00 0.00 68 1014.7
20260905220053 20 26 11.3 19.3 0.00 0.00 0.00 67 1014.6
20260905214552 20 31 16.1 25.7 0.00 0.00 0.00 66 1014.6
20260905213051 20 38 16.1 25.7 0.00 0.00 0.00 67 1014.5
20260905211556 21 360 14.5 22.5 0.00 0.00 0.00 70 1014.6
20260905210049 21 30 16.1 24.1 0.00 0.00 0.00 69 1014.8
20260905204548 21 36 17.7 24.1 0.00 0.00 0.00 67 1014.7
20260905203055 21 27 16.1 25.7 0.00 0.00 0.00 66 1014.7
20260905201548 21 47 17.7 24.1 0.00 0.00 0.00 67 1014.6
20260905200050 22 42 17.7 24.1 0.00 0.00 0.00 67 1014.5
20260905194546 22 45 19.3 25.7 0.00 0.00 0.00 65 1014.5
20260905193104 22 57 14.5 20.9 0.00 0.00 0.00 68 1014.6
20260905191545 22 61 17.7 24.1 0.00 0.00 0.00 66 1014.6
20260905190045 22 51 16.1 25.7 0.00 0.00 0.00 67 1014.7
20260905184544 22 5 16.1 27.4 0.00 0.00 0.00 67 1014.7
20260905183046 22 65 16.1 24.1 0.00 0.00 0.00 68 1014.7
20260905181542 22 59 11.3 22.5 0.00 0.00 0.00 70 1014.7
20260905180042 22 58 14.5 25.7 0.00 0.00 0.00 71 1014.7
20260905174540 22 16 12.9 22.5 0.00 0.00 0.00 71 1014.6
20260905173042 22 49 14.5 22.5 0.00 0.00 0.00 69 1014.6
20260905171539 22 67 14.5 19.3 0.00 0.00 0.00 68 1014.6
20260905170038 22 47 9.7 20.9 0.00 0.00 0.00 66 1014.7
20260905164535 22 44 14.5 19.3 0.00 0.00 0.00 68 1014.7
20260905163034 22 101 8.0 19.3 0.00 0.00 0.00 69 1014.7
20260905161532 22 58 12.9 17.7 0.00 0.00 0.00 66 1014.7
20260905160031 22 51 16.1 19.3 0.00 0.00 0.00 63 1014.7
20260905154527 22 14 9.7 16.1 0.00 0.00 0.00 69 1014.6
20260905153026 22 67 8.0 16.1 0.00 0.00 0.00 71 1014.5
20260905151522 22 68 9.7 19.3 0.00 0.00 0.00 69 1014.4
20260905150019 21 58 12.9 20.9 0.00 0.00 0.00 69 1014.4
20260905144519 21 100 9.7 17.7 0.00 0.00 0.00 73 1014.4
20260905143013 21 53 9.7 16.1 0.00 0.00 0.00 74 1014.3
20260905141511 21 58 8.0 17.7 0.00 0.00 0.00 75 1014.4
20260905140007 21 30 11.3 19.3 0.00 0.00 0.00 77 1014.3
20260905134502 20 61 11.3 19.3 0.00 0.00 0.00 78 1014.3
20260905133058 20 57 9.7 17.7 0.00 0.00 0.00 78 1014.2
20260905131553 20 54 9.7 19.3 0.00 0.00 0.00 79 1014.2
20260905130049 20 73 6.4 9.7 0.00 0.00 0.00 83 1014.2
20260905124547 18 58 3.2 8.0 0.00 0.03 0.00 84 1014.2
20260905123048 18 50 6.4 16.1 0.00 0.03 0.00 83 1014.1
20260905121541 18 69 1.6 8.0 0.00 0.03 0.00 84 1014.1
20260905120037 18 47 4.8 8.0 0.00 0.03 0.00 85 1013.9
20260905114534 18 44 6.4 11.3 0.00 0.03 0.00 86 1013.6
20260905113034 17 66 3.2 8.0 0.00 0.03 0.00 88 1013.6
20260905111531 17 55 4.8 9.7 0.00 0.03 0.00 88 1013.4
20260905110029 17 43 4.8 8.0 0.00 0.03 0.00 87 1013.4
20260905104528 17 62 6.4 16.1 0.00 0.03 0.00 87 1013.1
20260905103034 17 37 8.0 14.5 0.00 0.03 0.00 87 1013.2
20260905101530 18 28 8.0 12.9 0.00 0.03 0.00 87 1013.3
20260905100026 18 26 6.4 9.7 0.00 0.03 0.00 87 1013.5
20260905094526 18 48 6.4 8.0 0.00 0.03 0.00 87 1013.6
20260905093025 18 50 4.8 8.0 0.00 0.03 0.00 87 1013.6
20260905091524 18 36 6.4 9.7 0.00 0.03 0.00 88 1013.4
20260905090032 18 24 4.8 6.4 0.00 0.03 0.00 90 1013.2
20260905084522 18 40 1.6 4.8 0.00 0.03 0.00 91 1013.3
20260905083021 18 40 1.6 4.8 0.00 0.03 0.00 91 1013.4
20260905081522 18 48 3.2 9.7 0.00 0.03 0.00 91 1013.1
20260905080021 18 34 4.8 8.0 0.00 0.03 0.00 92 1013.1
20260905074519 18 36 4.8 8.0 0.00 0.03 0.00 92 1012.8
20260905073019 18 13 3.2 6.4 0.00 0.03 0.00 92 1012.8
20260905071519 18 39 1.6 4.8 0.00 0.03 0.00 92 1012.6
20260905070019 18 39 3.2 9.7 0.00 0.03 0.00 92 1012.7
20260905064513 18 36 4.8 6.4 0.00 0.03 0.00 92 1013.1
20260905063011 17 46 3.2 8.0 0.00 0.03 0.00 91 1012.8